Precipitable_Water
0.48 0.49 0.51 0.56 0.60 0.61 0.62 0.62 0.69 0.71 0.73 0.78 0.95 1.13 1.49 1.53 1.48 1.46 1.43 1.38 1.39 1.32
0.49 0.49 0.51 0.61 0.62 0.62 0.69 0.73 0.74 0.74 0.78 0.82 0.90 1.08 1.12 1.32 1.46 1.51 1.45 1.44 1.48 1.44
0.46 0.58 0.64 0.67 0.63 0.65 0.71 0.73 0.70 0.70 0.80 0.84 0.86 0.92 1.15 1.22 1.33 1.39 1.43 1.45 1.50 1.52
0.55 0.58 0.60 0.61 0.64 0.66 0.68 0.68 0.68 0.73 0.78 0.82 0.87 0.90 0.97 1.03 1.10 1.41 1.37 1.44 1.47 1.51
0.63 0.63 0.62 0.63 0.67 0.71 0.72 0.75 0.76 0.80 0.81 0.83 0.88 0.91 0.89 0.90 1.08 1.26 1.31 1.40 1.46 1.45
0.61 0.62 0.64 0.68 0.70 0.75 0.80 0.85 0.91 0.92 0.85 0.88 0.90 0.95 0.95 0.90 0.87 0.98 1.06 1.30 1.39 1.43
0.72 0.74 0.77 0.81 0.87 0.91 0.98 0.99 1.00 0.98 1.05 1.11 1.02 1.05 1.05 1.04 1.04 1.02 1.16 1.33 1.42 1.47
0.99 1.04 1.04 1.05 1.07 1.12 1.17 1.16 1.13 1.13 1.27 1.16 1.17 1.35 1.31 1.23 1.27 1.25 1.38 1.48 1.53 1.52
1.07 1.10 1.13 1.14 1.19 1.21 1.22 1.29 1.33 1.31 1.34 1.31 1.21 1.31 1.31 1.37 1.39 1.46 1.46 1.47 1.48 1.50
1.09 1.12 1.15 1.23 1.25 1.26 1.29 1.31 1.30 1.35 1.35 1.32 1.37 1.37 1.39 1.44 1.45 1.44 1.43 1.41 1.46 1.45
1.08 1.11 1.16 1.19 1.19 1.23 1.25 1.26 1.27 1.28 1.33 1.34 1.35 1.41 1.44 1.46 1.45 1.43 1.43 1.42 1.43 1.41
1.03 1.05 1.07 1.11 1.11 1.16 1.19 1.19 1.21 1.25 1.26 1.25 1.26 1.31 1.33 1.36 1.34 1.32 1.32 1.32 1.32 1.29
0.81 0.88 0.99 1.03 1.05 1.09 1.11 1.08 1.10 1.10 1.10 1.13 1.12 1.14 1.14 1.17 1.14 1.10 1.11 1.17 1.19 1.19
0.44 0.50 0.62 0.69 0.77 0.87 0.90 0.94 0.96 0.97 0.99 0.99 1.01 1.01 1.01 1.01 1.00 0.98 0.97 0.96 1.01 1.05
Wind_Speed
50 49 48 48 48 49 49 47 46 46 47 49 50 51 43 45 45 45 46 46 46 43
45 45 45 45 46 46 47 47 47 46 47 48 49 50 51 50 46 45 47 48 46 46
40 41 41 41 42 43 44 45 46 46 47 47 49 50 51 50 50 50 47 48 49 47
35 36 37 39 40 41 42 43 44 45 46 48 48 49 52 53 50 48 49 48 48 45
30 33 35 37 38 38 39 41 43 45 46 47 48 49 52 54 56 54 48 47 47 48
26 30 32 34 35 36 37 38 40 42 44 47 47 47 50 51 53 56 54 52 49 48
17 22 25 28 29 29 30 31 32 36 39 41 44 43 44 46 48 49 51 51 50 48
8 12 17 20 21 22 23 23 26 28 33 35 37 35 34 35 41 44 44 45 45 45
2 6 11 19 19 18 19 16 17 19 22 25 30 34 32 30 32 36 38 39 42 43
15 11 10 10 14 13 13 10 4 13 20 19 20 26 27 27 28 29 28 31 35 36
25 22 17 15 14 13 11 11 11 13 15 15 14 16 20 23 24 25 28 31 32 34
25 28 29 24 23 16 14 13 15 15 12 9 8 7 11 15 16 19 21 24 28 32
21 22 22 21 20 18 17 16 15 13 9 7 5 2 3 7 11 14 18 21 25 27
18 17 17 16 15 13 13 11 10 8 6 4 3 2 4 6 10 14 17 20 22 26
Wind_Direction
228 230 232 232 232 232 233 234 236 237 237 236 235 235 234 232 233 234 233 233 231 236
226 228 229 231 231 232 233 235 237 239 237 236 235 235 234 233 234 234 233 233 233 235
223 225 227 228 230 232 234 236 238 239 238 237 235 234 233 234 233 236 235 233 234 238
219 223 226 228 231 233 236 238 238 237 238 237 235 235 234 233 232 233 232 233 236 236
220 223 227 230 233 234 236 238 240 239 237 236 236 236 234 233 232 232 232 231 234 236
227 229 231 234 234 237 239 239 239 237 237 238 236 235 234 233 233 231 233 232 235 237
223 227 228 230 230 230 231 231 235 237 239 236 231 232 230 230 229 229 230 232 236 236
207 217 215 212 215 221 223 227 234 240 235 223 221 218 217 226 224 224 228 232 232 234
182 180 196 201 201 207 214 222 231 228 210 208 209 213 217 219 218 220 228 232 233 237
66 95 131 154 170 172 176 185 180 175 189 193 197 202 212 215 216 221 228 229 234 235
61 73 89 114 127 140 143 144 140 141 148 166 176 193 208 217 225 232 235 236 239 242
65 70 73 93 84 106 108 117 123 130 139 149 174 191 212 223 231 238 241 245 249 253
63 68 73 79 83 86 92 96 101 108 113 108 129 154 222 235 244 250 256 260 264 264
60 63 67 70 72 77 79 85 88 91 94 79 50 345 314 292 276 274 274 276 274 276